DAL5077 KJFK-KCLT

Flight info

Callsign DAL5077
Flight time 1h 27m
Altitude 32000
Route RBV Q430 BYRDD J48 MOL AIROW CHSLY6
Aircraft B739/M-SDE2E3FGHIRWXY/LB1

Departure

Time 2026-05-09 00:54
Airport John F. Kennedy International Airport (KJFK)

Arrival

Time 2026-05-09 02:21
Airport Charlotte Douglas International Airport (KCLT)
Time Latitude Longitude Altitude Speed Heading
2026-05-09 00:31 40.64086 -73.79018 21 ft 0 kts 137°
2026-05-09 00:39 40.64092 -73.79024 21 ft 2 kts 136°
2026-05-09 00:39 40.64103 -73.79038 21 ft 2 kts 140°
2026-05-09 00:39 40.64116 -73.79047 21 ft 2 kts 167°
2026-05-09 00:39 40.64131 -73.79048 21 ft 2 kts 187°
2026-05-09 00:40 40.64145 -73.79042 21 ft 2 kts 209°
2026-05-09 00:40 40.64153 -73.79035 21 ft 0 kts 223°
2026-05-09 00:40 40.64158 -73.79029 21 ft 0 kts 225°
2026-05-09 00:43 40.64133 -73.79060 21 ft 11 kts 224°
2026-05-09 00:44 40.64080 -73.79127 21 ft 9 kts 223°
2026-05-09 00:44 40.64035 -73.79185 21 ft 8 kts 226°
2026-05-09 00:44 40.64001 -73.79230 21 ft 4 kts 222°
2026-05-09 00:44 40.63977 -73.79244 21 ft 8 kts 184°
2026-05-09 00:45 40.63923 -73.79174 21 ft 11 kts 120°
2026-05-09 00:45 40.63885 -73.79092 21 ft 9 kts 122°
2026-05-09 00:45 40.63853 -73.79022 21 ft 9 kts 120°
2026-05-09 00:45 40.63801 -73.78904 21 ft 19 kts 121°
2026-05-09 00:46 40.63734 -73.78755 21 ft 18 kts 121°
2026-05-09 00:46 40.63671 -73.78619 21 ft 16 kts 121°
2026-05-09 00:46 40.63613 -73.78490 21 ft 16 kts 120°
2026-05-09 00:46 40.63553 -73.78359 21 ft 16 kts 120°
2026-05-09 00:47 40.63499 -73.78239 21 ft 14 kts 121°
2026-05-09 00:47 40.63451 -73.78132 21 ft 12 kts 121°
2026-05-09 00:47 40.63398 -73.78013 21 ft 17 kts 119°
2026-05-09 00:47 40.63341 -73.77880 21 ft 15 kts 120°
2026-05-09 00:48 40.63290 -73.77765 21 ft 13 kts 121°
2026-05-09 00:48 40.63243 -73.77662 21 ft 12 kts 120°
2026-05-09 00:48 40.63203 -73.77573 21 ft 10 kts 121°
2026-05-09 00:48 40.63167 -73.77496 21 ft 10 kts 120°
2026-05-09 00:49 40.63134 -73.77421 21 ft 8 kts 120°
2026-05-09 00:49 40.63109 -73.77367 21 ft 5 kts 121°
2026-05-09 00:49 40.63100 -73.77348 21 ft 0 kts 121°
2026-05-09 00:51 40.63096 -73.77338 21 ft 5 kts 121°
2026-05-09 00:51 40.63057 -73.77253 21 ft 12 kts 121°
2026-05-09 00:51 40.63017 -73.77165 21 ft 10 kts 121°
2026-05-09 00:52 40.62976 -73.77083 21 ft 9 kts 157°
2026-05-09 00:52 40.62920 -73.77106 21 ft 7 kts 209°
2026-05-09 00:52 40.62877 -73.77139 21 ft 6 kts 210°
2026-05-09 00:52 40.62841 -73.77168 21 ft 7 kts 217°
2026-05-09 00:53 40.62843 -73.77274 21 ft 12 kts 300°
2026-05-09 00:53 40.62912 -73.77422 21 ft 43 kts 300°
2026-05-09 00:53 40.63197 -73.78056 21 ft 115 kts 301°
2026-05-09 00:53 40.63715 -73.79198 21 ft 175 kts 300°
2026-05-09 00:54 40.64388 -73.80667 554 ft 188 kts 301°
2026-05-09 00:54 40.65001 -73.81979 1781 ft 161 kts 297°
2026-05-09 00:54 40.65329 -73.83341 2220 ft 171 kts 270°
2026-05-09 00:54 40.64880 -73.84860 2473 ft 192 kts 231°
2026-05-09 00:55 40.63834 -73.85969 3085 ft 196 kts 214°
2026-05-09 00:55 40.62571 -73.86779 3417 ft 214 kts 207°
2026-05-09 00:55 40.61201 -73.87671 3922 ft 220 kts 213°
2026-05-09 00:55 40.59919 -73.88661 4718 ft 213 kts 218°
2026-05-09 00:56 40.58789 -73.89886 5288 ft 215 kts 229°
2026-05-09 00:56 40.57767 -73.91360 5758 ft 224 kts 232°
2026-05-09 00:56 40.56699 -73.92971 6132 ft 242 kts 231°
2026-05-09 00:56 40.55446 -73.94515 6727 ft 255 kts 222°
2026-05-09 00:57 40.53921 -73.95815 7415 ft 263 kts 216°
2026-05-09 00:57 40.52343 -73.96996 8204 ft 265 kts 215°
2026-05-09 00:57 40.50745 -73.98154 8926 ft 268 kts 216°
2026-05-09 00:57 40.49126 -73.99393 9676 ft 269 kts 218°
2026-05-09 00:58 40.47543 -74.00658 10338 ft 273 kts 218°
2026-05-09 00:58 40.45851 -74.02042 10690 ft 290 kts 219°
2026-05-09 00:58 40.44103 -74.03477 10978 ft 307 kts 218°
2026-05-09 00:58 40.42231 -74.05013 11048 ft 333 kts 218°
2026-05-09 00:59 40.40180 -74.06690 11028 ft 352 kts 218°
2026-05-09 00:59 40.38091 -74.08385 11018 ft 359 kts 217°
2026-05-09 00:59 40.35972 -74.10098 11016 ft 359 kts 218°
2026-05-09 00:59 40.33835 -74.11825 11032 ft 363 kts 218°
2026-05-09 01:00 40.31880 -74.13845 11772 ft 353 kts 234°
2026-05-09 01:00 40.30626 -74.16507 12511 ft 344 kts 251°
2026-05-09 01:00 40.29816 -74.19460 13149 ft 346 kts 257°
2026-05-09 01:00 40.29074 -74.22478 13832 ft 350 kts 256°
2026-05-09 01:01 40.28260 -74.25457 14526 ft 352 kts 255°
2026-05-09 01:01 40.27356 -74.28450 15077 ft 358 kts 253°
2026-05-09 01:01 40.26384 -74.31450 15745 ft 360 kts 252°
2026-05-09 01:01 40.25380 -74.34441 16377 ft 363 kts 251°
2026-05-09 01:02 40.24353 -74.37460 16885 ft 368 kts 251°
2026-05-09 01:02 40.23299 -74.40546 16998 ft 367 kts 252°
2026-05-09 01:02 40.22272 -74.43538 17006 ft 365 kts 251°
2026-05-09 01:02 40.21269 -74.46622 17002 ft 363 kts 254°
2026-05-09 01:03 40.20470 -74.49728 17000 ft 362 kts 259°
2026-05-09 01:03 40.19946 -74.52949 17047 ft 366 kts 264°
2026-05-09 01:03 40.19620 -74.56205 17867 ft 360 kts 267°
2026-05-09 01:03 40.19369 -74.59452 18284 ft 365 kts 268°
2026-05-09 01:04 40.19142 -74.62717 19052 ft 362 kts 268°
2026-05-09 01:04 40.18909 -74.66044 19545 ft 367 kts 268°
2026-05-09 01:04 40.18666 -74.69338 20124 ft 369 kts 267°
2026-05-09 01:04 40.18411 -74.72677 20797 ft 369 kts 267°
2026-05-09 01:05 40.18150 -74.76026 21325 ft 372 kts 267°
2026-05-09 01:05 40.17883 -74.79391 21938 ft 372 kts 267°
2026-05-09 01:05 40.17345 -74.86108 22965 ft 377 kts 268°
2026-05-09 01:06 40.17073 -74.89490 23492 ft 378 kts 268°
2026-05-09 01:06 40.16795 -74.92928 23987 ft 380 kts 268°
2026-05-09 01:06 40.16518 -74.96337 24540 ft 380 kts 267°
2026-05-09 01:06 40.16240 -74.99738 25048 ft 381 kts 268°
2026-05-09 01:07 40.15953 -75.03235 25405 ft 385 kts 268°
2026-05-09 01:07 40.15667 -75.06703 25924 ft 385 kts 267°
2026-05-09 01:07 40.15382 -75.10133 26403 ft 385 kts 266°
2026-05-09 01:07 40.15093 -75.13628 26800 ft 388 kts 267°
2026-05-09 01:08 40.14804 -75.17096 27349 ft 386 kts 266°
2026-05-09 01:08 40.14513 -75.20569 28014 ft 381 kts 266°
2026-05-09 01:08 40.14226 -75.23965 28683 ft 375 kts 266°
2026-05-09 01:08 40.13939 -75.27344 29136 ft 374 kts 266°
2026-05-09 01:09 40.13658 -75.30673 29641 ft 371 kts 266°
2026-05-09 01:09 40.13377 -75.33981 30190 ft 368 kts 266°
2026-05-09 01:09 40.13096 -75.37279 30646 ft 365 kts 266°
2026-05-09 01:09 40.12823 -75.40482 31084 ft 361 kts 266°
2026-05-09 01:10 40.12546 -75.43736 31512 ft 359 kts 266°
2026-05-09 01:10 40.12274 -75.46944 31893 ft 356 kts 266°
2026-05-09 01:10 40.12000 -75.50177 31956 ft 358 kts 266°
2026-05-09 01:11 40.11442 -75.56632 31976 ft 354 kts 266°
2026-05-09 01:11 40.10882 -75.63045 31966 ft 354 kts 266°
2026-05-09 01:12 40.10332 -75.69302 31980 ft 356 kts 265°
2026-05-09 01:12 40.09772 -75.75621 31974 ft 356 kts 265°
2026-05-09 01:13 40.08774 -75.81951 31969 ft 361 kts 255°
2026-05-09 01:13 40.06403 -75.87705 31978 ft 371 kts 245°
2026-05-09 01:14 40.03535 -75.93276 31962 ft 373 kts 244°
2026-05-09 01:14 40.00652 -75.98825 31959 ft 371 kts 244°
2026-05-09 01:15 39.97802 -76.04365 31973 ft 373 kts 245°
2026-05-09 01:15 39.94934 -76.09966 31966 ft 369 kts 244°
2026-05-09 01:16 39.92078 -76.15562 31955 ft 371 kts 245°
2026-05-09 01:16 39.89239 -76.21117 31975 ft 371 kts 244°
2026-05-09 01:17 39.84938 -76.29514 31961 ft 371 kts 245°
2026-05-09 01:17 39.82073 -76.35092 31955 ft 371 kts 245°
2026-05-09 01:18 39.79212 -76.40646 31961 ft 370 kts 245°
2026-05-09 01:18 39.76369 -76.46171 31951 ft 371 kts 244°
2026-05-09 01:19 39.73480 -76.51763 31963 ft 371 kts 244°
2026-05-09 01:19 39.70619 -76.57291 31951 ft 372 kts 244°
2026-05-09 01:20 39.67722 -76.62880 31963 ft 371 kts 245°
2026-05-09 01:20 39.64833 -76.68443 31962 ft 372 kts 243°
2026-05-09 01:21 39.61946 -76.73998 31973 ft 371 kts 243°
2026-05-09 01:21 39.59053 -76.79550 31947 ft 370 kts 243°
2026-05-09 01:22 39.56173 -76.85072 31976 ft 372 kts 244°
2026-05-09 01:22 39.53278 -76.90617 31977 ft 371 kts 243°
2026-05-09 01:23 39.50313 -76.96094 31960 ft 373 kts 240°
2026-05-09 01:23 39.46638 -77.00997 31974 ft 389 kts 231°
2026-05-09 01:24 39.42419 -77.05464 31967 ft 390 kts 229°
2026-05-09 01:24 39.38174 -77.09835 31966 ft 388 kts 229°
2026-05-09 01:25 39.33955 -77.14220 31977 ft 388 kts 229°
2026-05-09 01:25 39.29749 -77.18609 31975 ft 390 kts 229°
2026-05-09 01:26 39.25535 -77.23011 31967 ft 388 kts 229°
2026-05-09 01:26 39.21363 -77.27366 31972 ft 387 kts 229°
2026-05-09 01:27 39.17188 -77.31721 31969 ft 385 kts 229°
2026-05-09 01:27 39.13003 -77.36089 31952 ft 389 kts 229°
2026-05-09 01:28 39.08820 -77.40442 31957 ft 387 kts 230°
2026-05-09 01:28 39.04633 -77.44793 31949 ft 386 kts 229°
2026-05-09 01:29 39.00449 -77.49133 31946 ft 387 kts 229°
2026-05-09 01:29 38.96240 -77.53487 31964 ft 387 kts 229°
2026-05-09 01:30 38.92046 -77.57825 31957 ft 386 kts 229°
2026-05-09 01:30 38.87840 -77.62164 31957 ft 387 kts 229°
2026-05-09 01:31 38.83654 -77.66478 31961 ft 387 kts 229°
2026-05-09 01:31 38.79541 -77.70715 31957 ft 389 kts 229°
2026-05-09 01:32 38.75331 -77.75039 31956 ft 386 kts 229°
2026-05-09 01:32 38.71134 -77.79340 31966 ft 386 kts 228°
2026-05-09 01:33 38.66969 -77.83613 31964 ft 384 kts 230°
2026-05-09 01:33 38.63150 -77.88312 31971 ft 374 kts 238°
2026-05-09 01:34 38.59982 -77.93418 31972 ft 366 kts 241°
2026-05-09 01:34 38.56927 -77.98690 31976 ft 370 kts 242°
2026-05-09 01:35 38.53871 -78.03946 31968 ft 369 kts 241°
2026-05-09 01:35 38.50798 -78.09186 31972 ft 367 kts 240°
2026-05-09 01:36 38.47739 -78.14380 31966 ft 369 kts 241°
2026-05-09 01:36 38.44661 -78.19589 31966 ft 367 kts 240°
2026-05-09 01:37 38.41582 -78.24795 31965 ft 368 kts 241°
2026-05-09 01:37 38.38511 -78.29975 31963 ft 367 kts 240°
2026-05-09 01:38 38.35442 -78.35142 31979 ft 367 kts 241°
2026-05-09 01:38 38.32364 -78.40319 31966 ft 367 kts 241°
2026-05-09 01:39 38.29302 -78.45451 31975 ft 364 kts 240°
2026-05-09 01:39 38.26226 -78.50613 31979 ft 367 kts 240°
2026-05-09 01:40 38.23202 -78.55679 31966 ft 364 kts 240°
2026-05-09 01:40 38.20149 -78.60780 31977 ft 366 kts 240°
2026-05-09 01:41 38.17067 -78.65927 31984 ft 365 kts 240°
2026-05-09 01:41 38.14014 -78.71011 31982 ft 362 kts 240°
2026-05-09 01:42 38.10964 -78.76084 31986 ft 364 kts 240°
2026-05-09 01:42 38.07884 -78.81200 31984 ft 362 kts 240°
2026-05-09 01:43 38.04841 -78.86240 32000 ft 361 kts 240°
2026-05-09 01:43 38.01788 -78.91298 31982 ft 362 kts 239°
2026-05-09 01:44 37.98737 -78.96339 31991 ft 363 kts 240°
2026-05-09 01:44 37.95698 -79.01351 31994 ft 357 kts 239°
2026-05-09 01:45 37.92520 -79.06268 31994 ft 367 kts 234°
2026-05-09 01:45 37.88248 -79.10018 31993 ft 394 kts 217°
2026-05-09 01:46 37.85642 -79.11247 32000 ft 406 kts 210°
2026-05-09 01:46 37.82860 -79.12103 31994 ft 413 kts 205°
2026-05-09 01:46 37.77122 -79.13302 31995 ft 420 kts 202°
2026-05-09 01:47 37.71404 -79.14304 31995 ft 414 kts 202°
2026-05-09 01:47 37.65633 -79.15344 32000 ft 418 kts 203°
2026-05-09 01:48 37.59888 -79.16402 31994 ft 418 kts 203°
2026-05-09 01:48 37.54148 -79.17465 31987 ft 416 kts 203°
2026-05-09 01:49 37.48437 -79.18529 31999 ft 416 kts 204°
2026-05-09 01:49 37.42735 -79.19599 31995 ft 415 kts 204°
2026-05-09 01:50 37.37040 -79.20669 31995 ft 411 kts 204°
2026-05-09 01:50 37.31354 -79.21743 32000 ft 416 kts 204°
2026-05-09 01:51 37.25766 -79.23212 32002 ft 397 kts 213°
2026-05-09 01:51 37.23311 -79.24516 32006 ft 380 kts 221°
2026-05-09 01:51 37.21060 -79.26184 32003 ft 368 kts 225°
2026-05-09 01:52 37.16900 -79.29858 32005 ft 368 kts 229°
2026-05-09 01:52 37.12802 -79.33617 32004 ft 364 kts 228°
2026-05-09 01:53 37.08693 -79.37355 32004 ft 366 kts 228°
2026-05-09 01:53 37.04554 -79.41089 32006 ft 366 kts 228°
2026-05-09 01:54 37.00422 -79.44772 32002 ft 363 kts 228°
2026-05-09 01:54 36.96217 -79.48354 32004 ft 368 kts 227°
2026-05-09 01:55 36.91983 -79.51887 32007 ft 364 kts 226°
2026-05-09 01:55 36.87760 -79.55433 32008 ft 366 kts 226°
2026-05-09 01:56 36.83585 -79.58939 32017 ft 361 kts 227°
2026-05-09 01:56 36.79395 -79.62467 32008 ft 365 kts 227°
2026-05-09 01:57 36.75191 -79.65992 32015 ft 364 kts 226°
2026-05-09 01:57 36.70953 -79.69554 31792 ft 371 kts 225°
2026-05-09 01:58 36.68824 -79.71337 31542 ft 368 kts 225°
2026-05-09 01:58 36.66715 -79.73093 31291 ft 365 kts 225°
2026-05-09 01:58 36.64588 -79.74864 31038 ft 368 kts 226°
2026-05-09 01:58 36.62477 -79.76627 30788 ft 371 kts 226°
2026-05-09 01:59 36.60329 -79.78422 30541 ft 372 kts 225°
2026-05-09 01:59 36.58170 -79.80222 30293 ft 376 kts 226°
2026-05-09 01:59 36.55979 -79.82055 30038 ft 380 kts 225°
2026-05-09 01:59 36.53786 -79.83879 29788 ft 376 kts 226°
2026-05-09 02:00 36.51609 -79.85688 29533 ft 380 kts 226°
2026-05-09 02:00 36.49409 -79.87522 29167 ft 384 kts 226°
2026-05-09 02:00 36.47185 -79.89372 28459 ft 385 kts 225°
2026-05-09 02:00 36.44965 -79.91213 27678 ft 388 kts 224°
2026-05-09 02:01 36.42726 -79.93066 27195 ft 385 kts 224°
2026-05-09 02:01 36.40497 -79.94911 27051 ft 386 kts 224°
2026-05-09 02:01 36.38249 -79.96778 27024 ft 391 kts 224°
2026-05-09 02:01 36.36007 -79.98631 27014 ft 387 kts 224°
2026-05-09 02:02 36.33792 -80.00446 26923 ft 375 kts 224°
2026-05-09 02:02 36.31663 -80.02183 26679 ft 364 kts 224°
2026-05-09 02:02 36.29584 -80.03884 26446 ft 354 kts 224°
2026-05-09 02:02 36.27528 -80.05576 25888 ft 352 kts 224°
2026-05-09 02:03 36.25514 -80.07249 25163 ft 355 kts 223°
2026-05-09 02:03 36.23454 -80.08961 24497 ft 357 kts 223°
2026-05-09 02:03 36.21395 -80.10669 23802 ft 361 kts 222°
2026-05-09 02:03 36.19297 -80.12405 23138 ft 363 kts 222°
2026-05-09 02:04 36.17214 -80.14119 22684 ft 358 kts 221°
2026-05-09 02:04 36.15133 -80.15823 22160 ft 356 kts 221°
2026-05-09 02:04 36.13097 -80.17492 21665 ft 354 kts 221°
2026-05-09 02:04 36.11043 -80.19177 21150 ft 352 kts 221°
2026-05-09 02:05 36.09005 -80.20847 20579 ft 351 kts 220°
2026-05-09 02:05 36.06986 -80.22501 20112 ft 348 kts 220°
2026-05-09 02:05 36.04990 -80.24137 19568 ft 347 kts 220°
2026-05-09 02:05 36.02969 -80.25799 19116 ft 343 kts 220°
2026-05-09 02:06 36.00989 -80.27424 18591 ft 341 kts 220°
2026-05-09 02:06 35.99034 -80.29023 18038 ft 341 kts 219°
2026-05-09 02:06 35.97064 -80.30630 17845 ft 329 kts 219°
2026-05-09 02:07 35.93310 -80.33690 16967 ft 325 kts 219°
2026-05-09 02:07 35.91422 -80.35236 16470 ft 324 kts 219°
2026-05-09 02:07 35.89564 -80.36754 16013 ft 322 kts 219°
2026-05-09 02:07 35.87695 -80.38275 15565 ft 320 kts 219°
2026-05-09 02:08 35.85847 -80.39785 15041 ft 320 kts 219°
2026-05-09 02:08 35.84011 -80.41277 14818 ft 311 kts 219°
2026-05-09 02:08 35.82264 -80.42744 14678 ft 298 kts 222°
2026-05-09 02:08 35.80647 -80.44269 14469 ft 289 kts 224°
2026-05-09 02:09 35.79077 -80.45834 14022 ft 289 kts 224°
2026-05-09 02:09 35.77521 -80.47387 13623 ft 289 kts 224°
2026-05-09 02:09 35.75960 -80.48919 13208 ft 289 kts 223°
2026-05-09 02:09 35.74301 -80.50304 12841 ft 291 kts 213°
2026-05-09 02:10 35.72401 -80.51247 12446 ft 294 kts 204°
2026-05-09 02:10 35.70441 -80.51932 12044 ft 295 kts 200°
2026-05-09 02:10 35.68459 -80.52588 11694 ft 292 kts 201°
2026-05-09 02:10 35.66536 -80.53265 11508 ft 283 kts 202°
2026-05-09 02:11 35.64663 -80.53961 11218 ft 279 kts 202°
2026-05-09 02:11 35.62815 -80.54673 10879 ft 277 kts 203°
2026-05-09 02:11 35.60984 -80.55423 10526 ft 273 kts 208°
2026-05-09 02:11 35.59347 -80.56523 10133 ft 269 kts 219°
2026-05-09 02:12 35.57841 -80.57867 9672 ft 270 kts 224°
2026-05-09 02:12 35.56579 -80.59518 9360 ft 262 kts 232°
2026-05-09 02:12 35.55282 -80.61083 9109 ft 259 kts 225°
2026-05-09 02:12 35.53910 -80.62458 8859 ft 255 kts 223°
2026-05-09 02:13 35.52511 -80.63802 8616 ft 251 kts 222°
2026-05-09 02:13 35.51060 -80.65192 8344 ft 249 kts 221°
2026-05-09 02:13 35.49702 -80.66506 8093 ft 248 kts 221°
2026-05-09 02:13 35.48345 -80.67828 7841 ft 247 kts 221°
2026-05-09 02:14 35.47008 -80.69143 7473 ft 251 kts 221°
2026-05-09 02:14 35.45649 -80.70504 7024 ft 255 kts 221°
2026-05-09 02:14 35.44263 -80.71909 6579 ft 258 kts 221°
2026-05-09 02:14 35.42893 -80.73306 6105 ft 261 kts 221°
2026-05-09 02:15 35.41517 -80.74754 5623 ft 261 kts 225°
2026-05-09 02:15 35.40505 -80.76568 5206 ft 258 kts 250°
2026-05-09 02:15 35.40138 -80.78670 5003 ft 247 kts 261°
2026-05-09 02:15 35.39964 -80.80717 4773 ft 240 kts 263°
2026-05-09 02:16 35.39818 -80.82767 4387 ft 242 kts 263°
2026-05-09 02:16 35.39682 -80.84790 4065 ft 238 kts 263°
2026-05-09 02:16 35.39550 -80.86826 3772 ft 238 kts 262°
2026-05-09 02:16 35.39430 -80.88818 3485 ft 237 kts 263°
2026-05-09 02:17 35.39317 -80.90796 3314 ft 230 kts 262°
2026-05-09 02:17 35.38883 -80.92626 3158 ft 219 kts 234°
2026-05-09 02:17 35.37787 -80.93913 3035 ft 218 kts 212°
2026-05-09 02:17 35.36470 -80.94810 3000 ft 215 kts 206°
2026-05-09 02:18 35.35103 -80.95556 2993 ft 211 kts 199°
2026-05-09 02:18 35.33722 -80.95682 2939 ft 195 kts 168°
2026-05-09 02:18 35.32496 -80.95032 2725 ft 188 kts 158°
2026-05-09 02:18 35.31274 -80.94612 2486 ft 180 kts 174°
2026-05-09 02:19 35.30058 -80.94421 2245 ft 175 kts 174°
2026-05-09 02:19 35.28863 -80.94250 2017 ft 165 kts 176°
2026-05-09 02:19 35.27781 -80.94134 1818 ft 151 kts 176°
2026-05-09 02:19 35.26770 -80.94029 1609 ft 145 kts 176°
2026-05-09 02:20 35.25742 -80.93926 1422 ft 148 kts 176°
2026-05-09 02:20 35.24710 -80.93809 1253 ft 148 kts 176°
2026-05-09 02:20 35.23672 -80.93724 1064 ft 149 kts 177°
2026-05-09 02:20 35.22626 -80.93625 838 ft 154 kts 176°
2026-05-09 02:21 35.21592 -80.93539 756 ft 134 kts 176°
2026-05-09 02:21 35.20868 -80.93478 756 ft 72 kts 176°
2026-05-09 02:21 35.20567 -80.93488 756 ft 24 kts 198°
2026-05-09 02:21 35.20469 -80.93536 756 ft 13 kts 206°
2026-05-09 02:22 35.20387 -80.93572 756 ft 11 kts 176°
2026-05-09 02:22 35.20312 -80.93566 756 ft 10 kts 175°
2026-05-09 02:22 35.20248 -80.93559 756 ft 8 kts 176°
2026-05-09 02:22 35.20195 -80.93555 756 ft 6 kts 176°
2026-05-09 02:23 35.20176 -80.93554 756 ft 0 kts 179°
2026-05-09 02:24 35.20173 -80.93558 756 ft 1 kts 248°
2026-05-09 02:24 35.20190 -80.93562 756 ft 4 kts
2026-05-09 02:24 35.20303 -80.93564 756 ft 21 kts 356°
2026-05-09 02:24 35.20447 -80.93576 756 ft 20 kts 355°
2026-05-09 02:25 35.20583 -80.93588 756 ft 18 kts 356°
2026-05-09 02:25 35.20707 -80.93598 756 ft 17 kts 358°
2026-05-09 02:25 35.20821 -80.93608 756 ft 16 kts 355°
2026-05-09 02:25 35.20964 -80.93620 756 ft 22 kts 356°
2026-05-09 02:26 35.21112 -80.93632 756 ft 20 kts 355°
2026-05-09 02:26 35.21250 -80.93645 756 ft 19 kts 356°
2026-05-09 02:26 35.21376 -80.93656 756 ft 17 kts 355°
2026-05-09 02:26 35.21488 -80.93665 756 ft 14 kts 354°
2026-05-09 02:27 35.21578 -80.93693 756 ft 13 kts 320°
2026-05-09 02:27 35.21648 -80.93793 756 ft 15 kts 309°
2026-05-09 02:27 35.21718 -80.93884 756 ft 13 kts 317°
2026-05-09 02:27 35.21772 -80.93968 756 ft 12 kts 270°
2026-05-09 02:28 35.21730 -80.94051 756 ft 10 kts 229°
2026-05-09 02:28 35.21683 -80.94115 756 ft 10 kts 227°
2026-05-09 02:28 35.21633 -80.94222 756 ft 15 kts 269°
2026-05-09 02:28 35.21643 -80.94349 756 ft 13 kts 284°
2026-05-09 02:29 35.21716 -80.94389 756 ft 11 kts 355°
2026-05-09 02:29 35.21778 -80.94421 756 ft 9 kts 287°
2026-05-09 02:29 35.21791 -80.94475 756 ft 2 kts 288°